FW8143 Weather Reports


Display with metric or nautical units.
time (UTC)temp
F
wind
direction
speed
MPH
gust
MPH
rain 1hr
in
rain 24hr
in
rain mn
in
humidity
%
barometer
mb
20260507073908 37 93 2.0 8.0 0.00 0.01 0.00 59 1027.3
20260507073402 37 89 3.0 8.0 0.00 0.01 0.00 58 1027.3
20260507073120 37 119 1.0 7.0 0.00 0.01 0.00 58 1027.2
20260507072350 37 93 2.0 6.0 0.00 0.01 0.00 56 1027.2
20260507071845 37 88 3.0 6.0 0.00 0.01 0.00 55 1027.1
20260507071340 37 82 3.0 7.0 0.00 0.01 0.00 55 1027.1
20260507070833 37 93 3.0 7.0 0.00 0.01 0.00 55 1027.1
20260507070327 37 83 2.0 5.0 0.00 0.01 0.00 55 1027.1
20260507065821 37 81 2.0 4.0 0.00 0.01 0.00 55 1027.1
20260507065315 38 81 2.0 4.0 0.00 0.01 0.00 55 1027.1
20260507064808 38 77 2.0 6.0 0.00 0.01 0.00 56 1027.1
20260507064526 38 69 3.0 7.0 0.00 0.01 0.00 57 1026.9
20260507063757 38 91 5.0 8.0 0.00 0.01 0.00 57 1026.9
20260507063251 38 88 5.0 8.0 0.00 0.01 0.00 56 1026.8
20260507062746 38 93 5.0 8.0 0.00 0.01 0.00 56 1026.8
20260507062239 38 96 6.0 8.0 0.00 0.01 0.00 56 1026.7
20260507061733 38 95 6.0 8.0 0.00 0.01 0.00 57 1026.7
20260507061227 38 96 5.0 8.0 0.00 0.01 0.00 58 1026.8
20260507060722 38 94 5.0 8.0 0.00 0.01 0.00 59 1026.7
20260507060216 38 110 6.0 8.0 0.00 0.01 0.00 59 1026.7
20260507055714 38 90 5.0 8.0 0.00 0.01 0.01 60 1026.7
20260507055435 39 107 6.0 9.0 0.00 0.01 0.01 60 1026.5
20260507054715 39 103 5.0 9.0 0.00 0.01 0.01 60 1026.5
20260507054215 39 112 5.0 9.0 0.00 0.01 0.01 59 1026.4
20260507053939 39 117 6.0 9.0 0.00 0.01 0.01 59 1026.3
20260507053214 40 107 5.0 10.0 0.00 0.01 0.01 58 1026.3
20260507052715 40 98 5.0 10.0 0.00 0.01 0.01 58 1026.3
20260507052212 40 84 5.0 8.0 0.00 0.01 0.01 56 1026.3
20260507051711 40 92 4.0 8.0 0.00 0.01 0.01 56 1026.3
20260507051211 40 89 4.0 6.0 0.00 0.01 0.01 57 1026.3
20260507050712 40 81 4.0 6.0 0.00 0.01 0.01 56 1026.3
20260507050206 41 61 4.0 7.0 0.00 0.01 0.01 55 1026.3
20260507045929 41 55 4.0 7.0 0.00 0.01 0.01 56 1026.3
20260507045427 41 63 4.0 7.0 0.00 0.02 0.01 57 1026.2
20260507044707 41 83 5.0 7.0 0.00 0.02 0.01 57 1026.2
20260507044207 41 98 5.0 7.0 0.00 0.03 0.01 57 1026.0
20260507043708 41 91 4.0 8.0 0.00 0.03 0.01 56 1026.0
20260507043208 41 83 4.0 8.0 0.00 0.03 0.01 56 1025.9
20260507042707 41 93 4.0 7.0 0.00 0.03 0.01 56 1025.9
20260507042647 42 91 4.0 7.0 0.00 0.03 0.01 55 1025.9
20260507041707 42 87 3.0 6.0 0.00 0.03 0.01 54 1025.8
20260507041428 42 76 3.0 5.0 0.00 0.04 0.01 54 1025.7
20260507040707 42 63 3.0 4.0 0.00 0.04 0.01 53 1025.7
20260507040206 42 34 3.0 5.0 0.00 0.04 0.01 53 1025.5
20260507035708 43 15 4.0 7.0 0.00 0.04 0.01 53 1025.5
20260507035207 43 27 4.0 7.0 0.00 0.04 0.01 53 1025.5
20260507034706 43 17 2.0 4.0 0.00 0.04 0.01 52 1025.4
20260507034207 43 349 2.0 5.0 0.00 0.04 0.01 53 1025.3
20260507033707 44 341 3.0 6.0 0.00 0.04 0.01 52 1025.4
20260507033159 44 9 1.0 5.0 0.00 0.04 0.01 52 1025.3
20260507032654 44 5 0.0 3.0 0.00 0.04 0.01 52 1025.3
20260507032147 45 277 0.0 2.0 0.00 0.04 0.01 50 1025.0
20260507031642 45 281 0.0 3.0 0.00 0.04 0.01 50 1024.9
20260507031137 45 254 1.0 3.0 0.00 0.04 0.01 50 1024.9
20260507030630 45 246 2.0 3.0 0.00 0.04 0.01 48 1024.7
20260507030124 46 250 2.0 5.0 0.00 0.05 0.01 48 1024.7
20260507025842 46 251 3.0 7.0 0.00 0.06 0.01 47 1024.5
20260507025111 46 236 3.0 7.0 0.00 0.07 0.01 47 1024.4
20260507024606 46 277 3.0 8.0 0.00 0.08 0.01 47 1024.4
20260507024100 46 244 5.0 10.0 0.00 0.08 0.01 47 1024.3
20260507023553 47 252 5.0 11.0 0.00 0.08 0.01 46 1024.2
20260507023047 47 254 5.0 11.0 0.00 0.09 0.01 45 1024.2
20260507022542 47 239 6.0 13.0 0.00 0.09 0.01 45 1023.9
20260507022035 47 250 7.0 15.0 0.00 0.09 0.01 45 1023.8
20260507021752 48 251 7.0 15.0 0.00 0.09 0.01 44 1023.7
20260507021023 48 266 8.0 14.0 0.00 0.09 0.01 43 1023.8
20260507020745 49 268 8.0 15.0 0.00 0.09 0.01 43 1023.5
20260507020233 49 267 8.0 16.0 0.00 0.09 0.01 42 1023.5
20260507015506 49 261 8.0 16.0 0.00 0.09 0.01 42 1023.4
20260507014959 50 257 8.0 16.0 0.00 0.09 0.01 42 1023.4
20260507014454 50 248 8.0 16.0 0.00 0.10 0.01 41 1023.2
20260507013947 51 263 9.0 17.0 0.00 0.11 0.01 41 1023.3
20260507013442 51 264 10.0 17.0 0.00 0.13 0.01 40 1023.2
20260507012935 51 242 9.0 18.0 0.00 0.16 0.01 40 1023.2
20260507012430 51 236 8.0 18.0 0.00 0.17 0.01 40 1023.2
20260507011924 50 5 9.0 21.0 0.00 0.17 0.01 39 1023.2
20260507011418 50 260 12.0 24.0 0.00 0.17 0.01 39 1023.2
20260507010912 50 297 13.0 24.0 0.00 0.17 0.01 39 1023.0
20260507010405 50 20 11.0 20.0 0.00 0.17 0.01 38 1022.9
20260507005900 51 318 9.0 17.0 0.00 0.17 0.01 40 1022.9
20260507005354 51 261 9.0 18.0 0.00 0.17 0.01 40 1022.5
20260507005112 51 176 9.0 20.0 0.00 0.17 0.01 40 1022.6
20260507004342 51 15 10.0 20.0 0.00 0.17 0.01 40 1022.4
20260507003835 51 297 8.0 20.0 0.00 0.17 0.01 40 1022.3
20260507003330 51 234 5.0 14.0 0.00 0.17 0.01 46 1022.1
20260507002823 51 300 4.0 14.0 0.00 0.17 0.01 49 1022.0
20260507002546 51 332 4.0 12.0 0.00 0.17 0.01 50 1022.0
20260507001812 51 0 6.0 17.0 0.00 0.17 0.01 51 1022.0
20260507001305 51 196 10.0 24.0 0.00 0.17 0.01 49 1022.0
20260507000800 52 275 10.0 24.0 0.00 0.17 0.01 43 1022.0
20260507000253 52 269 8.0 15.0 0.00 0.17 0.01 41 1021.6
20260506235748 52 273 9.0 19.0 0.00 0.17 0.01 41 1021.5
20260506235509 52 254 10.0 20.0 0.00 0.17 0.01 41 1021.5
20260506234736 52 258 9.0 20.0 0.00 0.17 0.01 41 1021.6
20260506234229 52 222 6.0 17.0 0.00 0.17 0.01 43 1021.6
20260506233723 51 211 4.0 11.0 0.00 0.17 0.01 47 1021.8
20260506233218 51 272 5.0 11.0 0.00 0.17 0.01 47 1021.8
20260506232711 51 268 6.0 11.0 0.00 0.17 0.01 47 1021.6
20260506232426 51 252 6.0 13.0 0.00 0.17 0.01 47 1021.5
20260506231700 51 291 6.0 13.0 0.00 0.17 0.01 47 1021.4
20260506231154 51 248 5.0 10.0 0.00 0.17 0.01 47 1021.5
20260506230648 51 5 5.0 12.0 0.00 0.17 0.01 47 1021.5
20260506230141 51 272 5.0 12.0 0.00 0.17 0.01 49 1021.6
20260506225636 50 300 7.0 14.0 0.00 0.17 0.01 53 1021.6
20260506225129 50 302 7.0 14.0 0.00 0.17 0.01 53 1021.5
20260506225112 50 281 8.0 15.0 0.00 0.17 0.01 54 1021.5
20260506224118 50 291 9.0 19.0 0.00 0.17 0.01 52 1021.5
20260506223611 50 310 10.0 20.0 0.00 0.17 0.01 52 1021.5
20260506223105 51 279 12.0 26.0 0.00 0.17 0.01 52 1021.6
20260506222559 52 273 13.0 26.0 0.00 0.17 0.01 49 1021.5
20260506222054 53 26 15.0 26.0 0.00 0.17 0.01 49 1021.3
20260506221548 54 329 14.0 26.0 0.00 0.17 0.01 47 1020.9
20260506221042 54 30 10.0 24.0 0.00 0.17 0.01 40 1020.6
20260506220536 54 260 10.0 24.0 0.00 0.17 0.01 41 1020.6
20260506220030 54 289 12.0 24.0 0.00 0.17 0.01 40 1020.5
20260506215747 54 277 11.0 24.0 0.00 0.17 0.01 38 1020.4
20260506215017 55 286 9.0 19.0 0.00 0.17 0.01 38 1020.4
20260506214518 55 270 10.0 21.0 0.00 0.17 0.01 39 1020.5
20260506214018 56 312 10.0 21.0 0.00 0.17 0.01 39 1020.6
20260506213519 55 236 10.0 19.0 0.00 0.17 0.01 41 1020.5
20260506213239 54 290 11.0 23.0 0.00 0.17 0.01 45 1020.5
20260506212518 53 241 13.0 23.0 0.00 0.17 0.01 45 1020.6
20260506212018 53 242 14.0 25.0 0.00 0.17 0.01 43 1020.5
20260506211518 54 253 14.0 25.0 0.00 0.17 0.01 43 1020.5
20260506211020 54 225 11.0 24.0 0.00 0.17 0.01 42 1020.4
20260506210518 54 283 9.0 16.0 0.00 0.17 0.01 44 1020.1
20260506210240 55 284 10.0 19.0 0.00 0.17 0.01 43 1020.3
20260506205518 55 218 9.0 19.0 0.00 0.17 0.01 42 1020.3
20260506205239 55 238 8.0 19.0 0.00 0.17 0.01 43 1020.3
20260506204518 55 234 9.0 19.0 0.00 0.17 0.01 43 1020.4
20260506204239 55 256 9.0 20.0 0.00 0.17 0.01 44 1020.5
20260506203520 54 253 10.0 21.0 0.00 0.17 0.01 46 1020.5
20260506203019 54 217 13.0 26.0 0.00 0.17 0.01 45 1020.6
20260506202512 55 248 11.0 26.0 0.00 0.17 0.01 44 1020.6
20260506202008 55 263 8.0 19.0 0.00 0.17 0.01 46 1020.5
20260506201508 55 232 9.0 20.0 0.00 0.17 0.01 45 1020.5
20260506201239 54 252 11.0 21.0 0.00 0.17 0.01 47 1020.5
20260506200508 54 282 12.0 21.0 0.00 0.17 0.01 45 1020.6
20260506200008 54 268 11.0 21.0 0.00 0.17 0.01 46 1020.5
20260506195507 54 234 12.0 24.0 0.00 0.17 0.01 46 1020.5
20260506195230 55 262 10.0 24.0 0.00 0.17 0.01 46 1020.5
20260506194508 55 256 10.0 22.0 0.00 0.17 0.01 47 1020.5
20260506194008 55 243 12.0 22.0 0.00 0.17 0.01 46 1020.5
20260506193508 55 239 13.0 23.0 0.00 0.17 0.01 46 1020.5
20260506193008 55 268 12.0 23.0 0.00 0.17 0.01 48 1020.5
20260506192504 54 208 11.0 21.0 0.00 0.17 0.01 51 1020.4
20260506192004 53 252 12.0 25.0 0.00 0.17 0.01 50 1020.5
20260506191504 53 246 10.0 25.0 0.00 0.17 0.01 51 1020.6
20260506191004 53 260 8.0 22.0 0.00 0.17 0.01 51 1020.6
20260506190504 54 263 8.0 22.0 0.00 0.17 0.01 50 1020.8
20260506190004 54 279 9.0 20.0 0.00 0.17 0.01 51 1020.6
20260506185504 54 208 9.0 20.0 0.00 0.17 0.01 51 1020.8
20260506185004 53 264 9.0 20.0 0.00 0.17 0.01 53 1020.8
20260506184504 53 297 8.0 19.0 0.00 0.17 0.01 52 1020.8
20260506183959 54 234 7.0 19.0 0.00 0.17 0.01 51 1020.9
20260506183716 54 203 8.0 18.0 0.00 0.17 0.01 52 1020.9
20260506183000 53 215 9.0 21.0 0.00 0.17 0.01 53 1021.1
20260506182459 53 313 10.0 22.0 0.00 0.17 0.01 52 1021.1
20260506181959 53 218 9.0 22.0 0.00 0.17 0.01 55 1021.3
20260506181459 53 234 8.0 17.0 0.00 0.17 0.01 57 1021.1
20260506181000 52 254 7.0 15.0 0.00 0.17 0.01 58 1021.3
20260506180725 51 183 8.0 15.0 0.00 0.17 0.01 57 1021.3
20260506180001 51 225 8.0 21.0 0.00 0.17 0.01 60 1021.3
20260506175454 51 240 8.0 21.0 0.00 0.17 0.01 59 1021.3
20260506174948 51 235 9.0 19.0 0.00 0.17 0.01 61 1021.4
20260506174443 50 177 10.0 19.0 0.00 0.17 0.01 61 1021.4
20260506173933 49 194 9.0 17.0 0.00 0.17 0.01 67 1021.3
20260506173426 48 220 8.0 15.0 0.00 0.17 0.01 66 1021.5
20260506172921 48 251 8.0 16.0 0.00 0.17 0.01 68 1021.4
20260506172415 47 184 8.0 15.0 0.00 0.17 0.01 69 1021.4
20260506171909 47 161 7.0 14.0 0.00 0.17 0.01 70 1021.4
20260506171403 46 201 6.0 14.0 0.00 0.17 0.01 72 1021.4
20260506170857 46 198 5.0 11.0 0.00 0.17 0.01 72 1021.5
20260506170351 46 200 3.0 10.0 0.00 0.17 0.01 72 1021.4
20260506165844 46 159 2.0 8.0 0.00 0.17 0.01 73 1021.3
20260506165339 45 262 3.0 8.0 0.00 0.17 0.01 74 1021.1
20260506164833 45 309 4.0 10.0 0.00 0.17 0.01 75 1021.1
20260506164545 45 271 5.0 12.0 0.00 0.17 0.01 76 1021.1
20260506163821 44 265 4.0 12.0 0.00 0.17 0.01 79 1021.1
20260506163538 44 217 3.0 7.0 0.00 0.17 0.01 79 1021.1
20260506162809 43 205 4.0 10.0 0.00 0.17 0.01 81 1021.3
20260506162521 43 238 5.0 10.0 0.00 0.17 0.01 82 1021.4
20260506161757 42 296 4.0 9.0 0.00 0.17 0.01 83 1021.3
20260506161251 42 278 4.0 8.0 0.00 0.17 0.01 83 1021.3
20260506160745 41 175 3.0 8.0 0.00 0.17 0.01 86 1021.1
20260506160239 41 178 3.0 11.0 0.00 0.17 0.01 87 1021.4
20260506155732 40 286 4.0 11.0 0.00 0.17 0.01 86 1021.4
20260506155227 40 268 3.0 9.0 0.00 0.17 0.01 88 1021.4
20260506154721 40 229 3.0 9.0 0.00 0.17 0.01 88 1021.4
20260506154215 40 243 3.0 9.0 0.00 0.17 0.01 87 1021.4
20260506153929 39 232 3.0 10.0 0.00 0.17 0.01 87 1021.5
20260506153203 39 233 5.0 11.0 0.00 0.17 0.01 88 1021.4
20260506152657 39 266 5.0 11.0 0.00 0.17 0.01 88 1021.4
20260506152151 39 211 3.0 9.0 0.00 0.17 0.01 88 1021.4
20260506151645 39 269 4.0 12.0 0.00 0.17 0.01 89 1021.4
20260506151139 39 237 6.0 12.0 0.00 0.17 0.01 90 1021.3
20260506150633 39 223 7.0 14.0 0.00 0.17 0.01 91 1021.4
20260506150126 39 250 7.0 14.0 0.00 0.17 0.01 92 1021.4
20260506145621 38 277 6.0 13.0 0.00 0.17 0.01 93 1021.4
20260506145115 38 205 4.0 11.0 0.00 0.17 0.01 94 1021.4
20260506144610 37 234 2.0 6.0 0.00 0.17 0.01 94 1021.4
20260506144103 37 215 3.0 6.0 0.00 0.17 0.01 94 1021.3
20260506143557 37 184 3.0 7.0 0.00 0.17 0.01 94 1021.1
20260506143050 37 183 2.0 7.0 0.00 0.17 0.01 94 1021.1
20260506142809 36 219 2.0 6.0 0.00 0.17 0.01 94 1021.1
20260506142039 36 198 3.0 6.0 0.00 0.17 0.01 94 1021.1
20260506141532 36 208 2.0 6.0 0.00 0.17 0.01 94 1021.1
20260506141247 35 240 1.0 5.0 0.00 0.17 0.01 94 1021.4
20260506140520 35 207 2.0 4.0 0.00 0.17 0.01 94 1021.3
20260506140015 35 207 2.0 4.0 0.00 0.17 0.01 94 1021.1
20260506135508 35 192 3.0 7.0 0.00 0.17 0.01 94 1021.3
20260506135003 35 188 2.0 7.0 0.00 0.17 0.01 94 1021.1
20260506134457 35 200 2.0 8.0 0.00 0.17 0.01 94 1021.3
20260506133951 34 241 3.0 10.0 0.00 0.17 0.01 94 1021.1
20260506133446 34 250 4.0 10.0 0.00 0.17 0.01 94 1021.0
20260506132940 34 211 3.0 9.0 0.00 0.17 0.01 94 1020.9
20260506132435 34 247 2.0 7.0 0.00 0.17 0.01 94 1020.9
20260506131928 33 232 2.0 4.0 0.00 0.17 0.01 93 1020.9
20260506131422 33 217 2.0 4.0 0.00 0.17 0.01 93 1020.9
20260506131133 33 223 2.0 6.0 0.00 0.17 0.01 93 1020.9
20260506130408 33 211 2.0 6.0 0.00 0.17 0.01 93 1020.8
20260506125903 33 246 2.0 4.0 0.00 0.17 0.01 93 1020.8
20260506125357 33 234 1.0 5.0 0.00 0.17 0.01 93 1020.8
20260506124850 33 210 1.0 6.0 0.00 0.17 0.01 93 1020.6
20260506124346 33 229 1.0 6.0 0.00 0.17 0.01 93 1020.8
20260506123841 33 189 1.0 4.0 0.00 0.17 0.01 93 1020.8
20260506123333 33 233 1.0 5.0 0.00 0.17 0.01 93 1020.5
20260506122828 33 208 1.0 5.0 0.00 0.17 0.01 93 1020.5
20260506122543 33 313 1.0 4.0 0.00 0.17 0.01 92 1020.5
20260506121817 33 86 1.0 7.0 0.00 0.17 0.01 93 1020.5
20260506121309 33 250 2.0 7.0 0.00 0.17 0.01 93 1020.5
20260506120802 33 192 1.0 6.0 0.00 0.17 0.01 93 1020.4
20260506120257 33 137 2.0 9.0 0.00 0.17 0.01 93 1020.4
20260506115750 33 145 2.0 9.0 0.00 0.17 0.01 93 1020.3
20260506115507 33 211 2.0 9.0 0.00 0.17 0.01 93 1020.4
20260506114739 33 243 3.0 9.0 0.00 0.17 0.01 93 1020.4
20260506114233 33 253 2.0 5.0 0.00 0.17 0.01 93 1020.3
20260506113952 33 227 2.0 6.0 0.00 0.17 0.01 93 1020.1
20260506113242 33 61 1.0 7.0 0.00 0.17 0.01 92 1020.1
20260506113220 33 248 2.0 6.0 0.00 0.17 0.01 92 1020.1
20260506112910 33 86 1.0 7.0 0.00 0.17 0.01 92 1020.0
20260506112146 33 194 2.0 7.0 0.00 0.17 0.01 92 1019.8
20260506111156 33 146 2.0 7.0 0.00 0.17 0.01 92 1019.6
20260506110911 33 150 1.0 4.0 0.00 0.17 0.01 92 1019.8
20260506110410 34 237 1.0 4.0 0.00 0.17 0.01 92 1019.9
20260506105900 34 355 0.0 3.0 0.00 0.17 0.01 92 1019.9
20260506105133 34 227 0.0 2.0 0.00 0.17 0.01 92 1019.9
20260506104856 34 227 0.0 3.0 0.00 0.17 0.01 92 1019.8
20260506104133 34 219 1.0 7.0 0.00 0.17 0.01 92 1019.8
20260506103633 34 209 1.0 7.0 0.00 0.17 0.01 92 1019.6
20260506103132 34 201 1.0 7.0 0.00 0.17 0.01 92 1019.8
20260506102633 34 251 1.0 7.0 0.00 0.17 0.01 92 1019.8
20260506102133 35 266 0.0 3.0 0.00 0.17 0.01 92 1019.8
20260506101633 35 221 1.0 3.0 0.00 0.17 0.01 92 1019.8
20260506101612 35 238 1.0 3.0 0.00 0.17 0.01 93 1019.9
20260506100633 35 238 2.0 3.0 0.00 0.17 0.01 93 1019.9
20260506100133 35 222 2.0 5.0 0.01 0.17 0.01 93 1019.9
20260506095633 35 243 2.0 5.0 0.01 0.17 0.01 93 1020.0
20260506095128 35 265 2.0 5.0 0.01 0.17 0.01 93 1019.9
20260506094630 35 240 2.0 5.0 0.01 0.17 0.01 93 1019.9
20260506094355 35 224 3.0 5.0 0.01 0.17 0.01 93 1019.9
20260506093628 35 248 2.0 5.0 0.01 0.17 0.01 93 1019.9
20260506093129 35 238 2.0 9.0 0.01 0.17 0.01 93 1019.9
20260506092629 35 247 1.0 9.0 0.01 0.17 0.01 93 1019.9
20260506092129 35 247 2.0 10.0 0.01 0.17 0.01 93 1019.9
20260506091629 35 253 2.0 10.0 0.01 0.17 0.01 93 1019.9
20260506091131 35 244 2.0 6.0 0.01 0.17 0.01 93 1019.9
20260506090848 35 258 1.0 4.0 0.01 0.17 0.01 93 1019.9
20260506090129 35 259 1.0 3.0 0.00 0.16 0.00 92 1019.9
20260506085630 35 252 1.0 3.0 0.00 0.16 0.00 92 1019.9
20260506085128 35 234 2.0 4.0 0.00 0.16 0.00 92 1019.8
20260506084629 35 213 1.0 4.0 0.00 0.16 0.00 92 1019.9
20260506084349 35 161 1.0 3.0 0.00 0.16 0.00 92 1019.8
20260506083849 35 148 1.0 4.0 0.00 0.16 0.00 92 1019.8
20260506083130 35 80 2.0 5.0 0.00 0.16 0.00 92 1019.8
20260506082627 35 286 1.0 5.0 0.00 0.16 0.00 92 1019.8
20260506082121 35 96 2.0 4.0 0.00 0.16 0.00 92 1019.6
20260506081841 35 93 2.0 4.0 0.00 0.16 0.00 92 1019.9
20260506081111 35 134 2.0 4.0 0.00 0.16 0.00 92 1019.9
20260506080605 36 137 2.0 4.0 0.00 0.16 0.00 92 1019.9